Weather Roundup
Issued by NWS Corpus Christi, TX

Home | Current Version | Previous Version | Text Only | Print | Product List | Glossary On
Versions: 1 2 3 4 5 6 7 8 9 10 11 12 13 14 15 16 17 18 19 20 21 22 23 24 25 26 27 28 29 30 31 32 33 34 35 36 37 38 39 40 41 42 43 44 45 46 47 48 49 50
000
ASUS44 KCRP 171410
HRRCRP

SOUTH TEXAS REGIONAL WEATHER ROUNDUP
NATIONAL WEATHER SERVICE CORPUS CHRISTI TX
900 AM CDT TUE OCT 17 2017


TXZ229>244-171500-
...CORPUS CHRISTI AREA OBSERVATIONS...

CITY           SKY/WX    TMP DP  RH WIND       PRES   REMARKS
CORPUS CHRISTI MOSUNNY   61  50  67 N10       30.26R
NAS CORPUS CHR NOT AVBL
ROCKPORT       SUNNY     61  51  70 NE8       30.25R
KINGSVILLE ARP FAIR      60  50  69 N7        30.27R
KINGSVILLE NAS MOSUNNY   60  49  66 N8        30.26R
ALICE          SUNNY     59  47  64 N6        30.26R
$$

...VICTORIA AREA OBSERVATIONS...

CITY           SKY/WX    TMP DP  RH WIND       PRES   REMARKS
PORT LAVACA    SUNNY     57  50  78 N6        30.26S
VICTORIA       SUNNY     57  49  74 N9        30.27R
BEEVILLE       FAIR      58  43  58 NE6       30.27R
PLEASANTON     SUNNY     56  45  66 CALM      30.30R
SAN ANTONIO    SUNNY     58  44  60 NE6       30.30R
$$

...LAREDO AREA OBSERVATIONS...

CITY           SKY/WX    TMP DP  RH WIND       PRES   REMARKS
LAREDO         SUNNY     56  49  77 CALM      30.30R
COTULLA        SUNNY     57  43  59 NE3       30.29R
DEL RIO        SUNNY     49  46  90 CALM      30.29R
MCALLEN        SUNNY     64  49  57 NW6       30.26R
HEBBRONVILLE   SUNNY     57  43  60 N5        30.29R
$$

...OTHER TEXAS OBSERVATIONS...

CITY           SKY/WX    TMP DP  RH WIND       PRES   REMARKS
BROWNSVILLE    SUNNY     65  52  62 NW8       30.23R
HOUSTON        SUNNY     58  47  66 NE7       30.28R
COL. STATION   SUNNY     57  44  62 NE6       30.30R
AUSTIN         SUNNY     56  50  80 CALM      30.30R
WACO           SUNNY     51  44  77 CALM      30.32R
FORT WORTH     SUNNY     56  46  69 SE5       30.30R
WICHITA FALLS  SUNNY     50  43  77 S5        30.27R
LUBBOCK        SUNNY     47  38  71 W5        30.26R
EL PASO        PTCLDY    53  38  56 N9        30.28S
$$

...MARINE OBSERVATIONS...

STATION/POSITION TIME  SKY/WX   TEMP    WIND        PRES    VSBY  WAVE   SWELL
                                AIR SEA DIR/SP/G                  HT/PER HT/PER
                 (UTC)          (F)     (DEG/KT/KT) (MB)    (MI)  (FT/S) (FT/S)
PORT ARANSAS     NOT AVBL
BUOY 90 E PORT A 1250            73 83   30/ 14/ 17 1021.8          5/ 7   3/ 7
BUOY 200 E PT IS 1350            78 84   30/ 14/ 19 1019.6R         7/ 8   7/ 8
BUOY 15 E GALVES 1350            67 80   30/ 16/ 19 1023.4R         4/ 5
$$




USA.gov is the U.S. government's official web portal to all federal, state and local government web resources and services.